Time,TemperatureF,DewpointF,PressureIn,WindDirection,WindDirectionDegrees,WindSpeedMPH,WindSpeedGustMPH,Humidity,HourlyPrecipIn,Conditions,Clouds,dailyrainin,SolarRadiationWatts/m^2,SoftwareType,DateUTC
2013-10-23 00:02:00,34.0,33.0,-100.00,NNE,29,3.0,6.0,95,0.00,,,0.06,0.000000,,2013-10-23 08:02:00,
2013-10-23 00:12:00,34.0,33.0,-100.00,NNE,29,3.0,6.0,95,0.00,,,0.06,0.000000,,2013-10-23 08:12:00,
2013-10-23 00:22:00,34.0,33.0,-100.00,NNE,29,3.0,6.0,95,0.00,,,0.06,0.000000,,2013-10-23 08:22:00,
2013-10-23 00:52:00,34.0,33.0,-100.00,NE,35,5.0,8.0,96,0.00,,,0.06,0.000000,,2013-10-23 08:52:00,
2013-10-23 01:02:00,34.0,33.0,-100.00,NE,35,5.0,8.0,96,0.00,,,0.06,0.000000,,2013-10-23 09:02:00,
2013-10-23 01:12:00,34.0,33.0,-100.00,NE,35,5.0,8.0,96,0.00,,,0.06,0.000000,,2013-10-23 09:12:00,
2013-10-23 01:21:00,34.0,33.0,-100.00,NE,35,5.0,8.0,96,0.00,,,0.06,0.000000,,2013-10-23 09:21:00,
2013-10-23 01:53:00,36.0,35.0,-100.00,NE,46,4.0,8.0,96,0.00,,,-99.99,0.000000,,2013-10-23 09:53:00,
2013-10-23 02:03:00,36.0,35.0,-100.00,NE,46,4.0,8.0,96,0.00,,,-99.99,0.000000,,2013-10-23 10:03:00,
2013-10-23 02:12:00,36.0,35.0,-100.00,NE,46,4.0,8.0,96,0.00,,,-99.99,0.000000,,2013-10-23 10:12:00,
2013-10-23 02:23:00,36.0,35.0,-100.00,NE,46,4.0,8.0,96,0.00,,,-99.99,0.000000,,2013-10-23 10:23:00,
2013-10-23 02:53:00,37.0,35.0,-100.00,NE,44,6.0,11.0,93,0.00,,,0.06,0.000000,,2013-10-23 10:53:00,
2013-10-23 03:02:00,37.0,35.0,-100.00,NE,44,6.0,11.0,93,0.00,,,0.06,0.000000,,2013-10-23 11:02:00,
2013-10-23 03:12:00,37.0,35.0,-100.00,NE,44,6.0,11.0,93,0.00,,,0.06,0.000000,,2013-10-23 11:12:00,
2013-10-23 03:22:00,37.0,35.0,-100.00,NE,44,6.0,11.0,93,0.00,,,0.06,0.000000,,2013-10-23 11:22:00,
2013-10-23 03:52:00,37.0,35.0,-100.00,NNE,28,4.0,8.0,92,0.00,,,0.06,0.000000,,2013-10-23 11:52:00,
2013-10-23 04:01:00,37.0,35.0,-100.00,NNE,28,4.0,8.0,92,0.00,,,0.06,0.000000,,2013-10-23 12:01:00,
2013-10-23 04:12:00,37.0,35.0,-100.00,NNE,28,4.0,8.0,92,0.00,,,0.06,0.000000,,2013-10-23 12:12:00,
2013-10-23 04:22:00,37.0,35.0,-100.00,NNE,28,4.0,8.0,92,0.00,,,0.06,0.000000,,2013-10-23 12:22:00,
2013-10-23 04:52:00,37.0,34.0,-100.00,NE,36,5.0,12.0,89,0.00,,,0.03,0.000000,,2013-10-23 12:52:00,
2013-10-23 05:01:00,37.0,34.0,-100.00,NE,36,5.0,12.0,89,0.00,,,0.03,0.000000,,2013-10-23 13:01:00,
2013-10-23 05:12:00,37.0,34.0,-100.00,NE,36,5.0,12.0,89,0.00,,,0.03,0.000000,,2013-10-23 13:12:00,
2013-10-23 05:21:00,37.0,34.0,-100.00,NE,36,5.0,12.0,89,0.00,,,0.03,0.000000,,2013-10-23 13:21:00,
2013-10-23 05:52:00,37.0,34.0,-100.00,NNE,20,4.0,12.0,89,0.00,,,0.03,0.000000,,2013-10-23 13:52:00,
2013-10-23 06:02:00,37.0,34.0,-100.00,NNE,20,4.0,12.0,89,0.00,,,0.03,0.000000,,2013-10-23 14:02:00,
2013-10-23 06:11:00,37.0,34.0,-100.00,NNE,20,4.0,12.0,89,0.00,,,0.03,0.000000,,2013-10-23 14:11:00,
2013-10-23 06:21:00,37.0,34.0,-100.00,NNE,20,4.0,12.0,89,0.00,,,0.03,0.000000,,2013-10-23 14:21:00,
2013-10-23 06:52:00,37.0,34.0,-100.00,NE,55,5.0,10.0,88,0.00,,,0.03,0.000000,,2013-10-23 14:52:00,
2013-10-23 07:01:00,37.0,34.0,-100.00,NE,55,5.0,10.0,88,0.00,,,0.03,0.000000,,2013-10-23 15:01:00,
2013-10-23 07:11:00,37.0,34.0,-100.00,NE,55,5.0,10.0,88,0.00,,,0.03,0.000000,,2013-10-23 15:11:00,
2013-10-23 07:22:00,37.0,34.0,-100.00,NE,55,5.0,10.0,88,0.00,,,0.03,0.000000,,2013-10-23 15:22:00,
2013-10-23 07:53:00,35.0,32.0,-100.00,NE,36,3.0,10.0,88,0.00,,,0.02,0.000000,,2013-10-23 15:53:00,
2013-10-23 08:03:00,35.0,32.0,-100.00,NE,36,3.0,10.0,88,0.00,,,0.02,0.000000,,2013-10-23 16:03:00,
2013-10-23 08:12:00,35.0,32.0,-100.00,NE,36,3.0,10.0,88,0.00,,,0.02,0.000000,,2013-10-23 16:12:00,
2013-10-23 08:23:00,35.0,32.0,-100.00,NE,36,3.0,10.0,88,0.00,,,0.02,0.000000,,2013-10-23 16:23:00,
2013-10-23 08:53:00,34.0,32.0,-100.00,NE,39,0.0,5.0,91,0.00,,,0.00,0.000000,,2013-10-23 16:53:00,
2013-10-23 09:03:00,34.0,32.0,-100.00,NE,39,0.0,5.0,91,0.00,,,0.00,0.000000,,2013-10-23 17:03:00,
2013-10-23 09:12:00,34.0,32.0,-100.00,NE,39,0.0,5.0,91,0.00,,,0.00,0.000000,,2013-10-23 17:12:00,
2013-10-23 09:22:00,34.0,32.0,-100.00,NE,39,0.0,5.0,91,0.00,,,0.00,0.000000,,2013-10-23 17:22:00,
2013-10-23 09:52:00,34.0,31.0,-100.00,SE,127,0.0,5.0,89,0.00,,,0.00,2.000000,,2013-10-23 17:52:00,
2013-10-23 10:01:00,34.0,31.0,-100.00,SE,127,0.0,5.0,89,0.00,,,0.00,2.000000,,2013-10-23 18:01:00,
2013-10-23 10:12:00,34.0,31.0,-100.00,SE,127,0.0,5.0,89,0.00,,,0.00,2.000000,,2013-10-23 18:12:00,
2013-10-23 10:22:00,34.0,31.0,-100.00,SE,127,0.0,5.0,89,0.00,,,0.00,2.000000,,2013-10-23 18:22:00,
2013-10-23 10:52:00,32.0,30.0,-100.00,ENE,74,1.0,3.0,93,0.00,,,0.00,21.000000,,2013-10-23 18:52:00,
2013-10-23 11:02:00,32.0,30.0,-100.00,ENE,74,1.0,3.0,93,0.00,,,0.00,21.000000,,2013-10-23 19:02:00,
2013-10-23 11:11:00,32.0,30.0,-100.00,ENE,74,1.0,3.0,93,0.00,,,0.00,21.000000,,2013-10-23 19:11:00,
2013-10-23 11:21:00,32.0,30.0,-100.00,ENE,74,1.0,3.0,93,0.00,,,0.00,21.000000,,2013-10-23 19:21:00,
2013-10-23 11:53:00,34.0,31.0,-100.00,ENE,67,1.0,3.0,87,0.00,,,0.00,45.000000,,2013-10-23 19:53:00,
2013-10-23 12:02:00,34.0,31.0,-100.00,ENE,67,1.0,3.0,87,0.00,,,0.00,45.000000,,2013-10-23 20:02:00,
2013-10-23 12:11:00,34.0,31.0,-100.00,ENE,67,1.0,3.0,87,0.00,,,0.00,45.000000,,2013-10-23 20:11:00,
2013-10-23 12:22:00,34.0,31.0,-100.00,ENE,67,1.0,3.0,87,0.00,,,0.00,45.000000,,2013-10-23 20:22:00,
2013-10-23 12:52:00,39.0,31.0,-100.00,ENE,57,1.0,4.0,74,0.00,,,0.00,193.000000,,2013-10-23 20:52:00,
2013-10-23 13:02:00,39.0,31.0,-100.00,ENE,57,1.0,4.0,74,0.00,,,0.00,193.000000,,2013-10-23 21:02:00,
2013-10-23 13:11:00,39.0,31.0,-100.00,ENE,57,1.0,4.0,74,0.00,,,0.00,193.000000,,2013-10-23 21:11:00,
2013-10-23 13:22:00,39.0,31.0,-100.00,ENE,57,1.0,4.0,74,0.00,,,0.00,193.000000,,2013-10-23 21:22:00,
2013-10-23 13:54:00,41.0,31.0,-100.00,NE,49,1.0,6.0,67,0.00,,,0.00,299.000000,,2013-10-23 21:54:00,
2013-10-23 14:04:00,41.0,31.0,-100.00,NE,49,1.0,6.0,67,0.00,,,0.00,299.000000,,2013-10-23 22:04:00,
2013-10-23 14:13:00,41.0,31.0,-100.00,NE,49,1.0,6.0,67,0.00,,,0.00,299.000000,,2013-10-23 22:13:00,
2013-10-23 14:24:00,41.0,31.0,-100.00,NE,49,1.0,6.0,67,0.00,,,0.00,299.000000,,2013-10-23 22:24:00,
2013-10-23 14:54:00,43.0,32.0,-100.00,NE,55,3.0,5.0,64,0.00,,,0.00,298.000000,,2013-10-23 22:54:00,
2013-10-23 15:03:00,43.0,32.0,-100.00,NE,55,3.0,5.0,64,0.00,,,0.00,298.000000,,2013-10-23 23:03:00,
2013-10-23 15:12:00,43.0,32.0,-100.00,NE,55,3.0,5.0,64,0.00,,,0.00,298.000000,,2013-10-23 23:12:00,
2013-10-23 15:22:00,43.0,32.0,-100.00,NE,55,3.0,5.0,64,0.00,,,0.00,298.000000,,2013-10-23 23:22:00,
2013-10-23 15:52:00,45.0,32.0,-100.00,ESE,116,1.0,7.0,60,0.00,,,0.00,268.000000,,2013-10-23 23:52:00,
2013-10-23 16:02:00,45.0,32.0,-100.00,ESE,116,1.0,7.0,60,0.00,,,0.00,268.000000,,2013-10-24 00:02:00,
2013-10-23 16:12:00,45.0,32.0,-100.00,ESE,116,1.0,7.0,60,0.00,,,0.00,268.000000,,2013-10-24 00:12:00,
2013-10-23 16:21:00,45.0,32.0,-100.00,ESE,116,1.0,7.0,60,0.00,,,0.00,268.000000,,2013-10-24 00:21:00,
2013-10-23 16:52:00,44.0,28.0,-100.00,NNE,22,2.0,5.0,53,0.00,,,0.00,203.000000,,2013-10-24 00:52:00,
2013-10-23 17:01:00,44.0,28.0,-100.00,NNE,22,2.0,5.0,53,0.00,,,0.00,203.000000,,2013-10-24 01:01:00,
2013-10-23 17:11:00,44.0,28.0,-100.00,NNE,22,2.0,5.0,53,0.00,,,0.00,203.000000,,2013-10-24 01:11:00,
2013-10-23 17:21:00,44.0,28.0,-100.00,NNE,22,2.0,5.0,53,0.00,,,0.00,203.000000,,2013-10-24 01:21:00,
2013-10-23 17:52:00,43.0,28.0,-100.00,NE,42,0.0,4.0,54,0.00,,,0.00,112.000000,,2013-10-24 01:52:00,
2013-10-23 18:02:00,43.0,28.0,-100.00,NE,42,0.0,4.0,54,0.00,,,0.00,112.000000,,2013-10-24 02:02:00,
2013-10-23 18:12:00,43.0,28.0,-100.00,NE,42,0.0,4.0,54,0.00,,,0.00,112.000000,,2013-10-24 02:12:00,
2013-10-23 18:22:00,43.0,28.0,-100.00,NE,42,0.0,4.0,54,0.00,,,0.00,112.000000,,2013-10-24 02:22:00,
2013-10-23 19:12:00,38.0,30.0,-100.00,NE,42,0.0,3.0,73,0.00,,,0.00,22.000000,,2013-10-24 03:12:00,
2013-10-23 19:22:00,38.0,30.0,-100.00,NE,42,0.0,3.0,73,0.00,,,0.00,22.000000,,2013-10-24 03:22:00,
2013-10-23 19:55:00,32.0,28.0,-100.00,East,89,0.0,2.0,85,0.00,,,0.00,1.000000,,2013-10-24 03:55:00,
2013-10-23 20:04:00,32.0,28.0,-100.00,East,89,0.0,2.0,85,0.00,,,0.00,1.000000,,2013-10-24 04:04:00,
2013-10-23 20:14:00,32.0,28.0,-100.00,East,89,0.0,2.0,85,0.00,,,0.00,1.000000,,2013-10-24 04:14:00,
2013-10-23 20:24:00,32.0,28.0,-100.00,East,89,0.0,2.0,85,0.00,,,0.00,1.000000,,2013-10-24 04:24:00,
2013-10-23 20:54:00,30.0,27.0,-100.00,NE,37,4.0,4.0,89,0.00,,,0.00,0.000000,,2013-10-24 04:54:00,
2013-10-23 21:04:00,30.0,27.0,-100.00,NE,37,4.0,4.0,89,0.00,,,0.00,0.000000,,2013-10-24 05:04:00,
2013-10-23 21:13:00,30.0,27.0,-100.00,NE,37,4.0,4.0,89,0.00,,,0.00,0.000000,,2013-10-24 05:13:00,
2013-10-23 21:22:00,30.0,27.0,-100.00,NE,37,4.0,4.0,89,0.00,,,0.00,0.000000,,2013-10-24 05:22:00,
2013-10-23 21:53:00,28.0,25.0,-100.00,NE,40,4.0,6.0,89,0.00,,,0.00,0.000000,,2013-10-24 05:53:00,
2013-10-23 22:03:00,28.0,25.0,-100.00,NE,40,4.0,6.0,89,0.00,,,0.00,0.000000,,2013-10-24 06:03:00,
2013-10-23 22:12:00,28.0,25.0,-100.00,NE,40,4.0,6.0,89,0.00,,,0.00,0.000000,,2013-10-24 06:12:00,
2013-10-23 22:21:00,28.0,25.0,-100.00,NE,40,4.0,6.0,89,0.00,,,0.00,0.000000,,2013-10-24 06:21:00,
2013-10-23 22:52:00,27.0,24.0,-100.00,South,185,1.0,5.0,90,0.00,,,0.00,0.000000,,2013-10-24 06:52:00,
2013-10-23 23:02:00,27.0,24.0,-100.00,South,185,1.0,5.0,90,0.00,,,0.00,0.000000,,2013-10-24 07:02:00,
2013-10-23 23:12:00,27.0,24.0,-100.00,South,185,1.0,5.0,90,0.00,,,0.00,0.000000,,2013-10-24 07:12:00,
2013-10-23 23:21:00,27.0,24.0,-100.00,South,185,1.0,5.0,90,0.00,,,0.00,0.000000,,2013-10-24 07:21:00,
2013-10-23 23:52:00,25.0,23.0,-100.00,NNW,342,0.0,3.0,92,0.00,,,0.00,0.000000,,2013-10-24 07:52:00,